Regional Weather Roundup
Issued by NWS

Home | Current Version | Previous Version | Text Only | Print | Product List | Glossary Off
Versions: 1 2 3 4 5 6 7 8 9 10 11 12 13 14 15 16 17 18 19 20 21 22 23 24 25 26 27 28 29 30 31 32 33 34 35 36 37 38 39 40 41 42 43 44 45 46 47 48 49 50

849
ASUS43 KDMX 162006
RWRIA

WEATHER ROUNDUP FOR IOWA
NATIONAL WEATHER SERVICE DES MOINES IA
300 PM CDT WED AUG 16 2017

NOTE: "FAIR" INDICATES FEW OR NO CLOUDS BELOW 12,000 FEET WITH NO
SIGNIFICANT WEATHER AND/OR OBSTRUCTIONS TO VISIBILITY.

* - THESE STATIONS ARE NOT NWS STATIONS...THUS NOT UNDER NWS
QUALITY CONTROL.  THEY ALSO DO NOT REPORT WEATHER SUCH
AS PRECIPITATION OR FOG.

IAZ001>003-012>014-020>022-031>034-043>046-162100-
   NORTHWEST IOWA

CITY           SKY/WX    TMP DP  RH WIND       PRES   REMARKS
CARROLL *      CLOUDY    77  73  88 S14       29.73F
CHEROKEE *     PTSUNNY   73  72  97 SE12      29.71F
DENISON *      MOSUNNY   79  70  73 S10G18    29.73F HX  81
LE MARS *      CLOUDY    75  70  83 SW12      29.70S
ORANGE CITY *  PTSUNNY   73  73 100 W7        29.70F
SHELDON *      LGT RAIN  70  68  94 SE9       29.69F
SIOUX CITY     CLOUDY    74  69  85 W12G21    29.71F
SPENCER        LGT RAIN  73  71  93 SE15      29.72F
STORM LAKE *     N/A     72  68  88 S12G22    29.74S
$$

IAZ055>058-069>071-079>083-090>094-162100-
   SOUTHWEST IOWA

CITY           SKY/WX    TMP DP  RH WIND       PRES   REMARKS
ATLANTIC *     MOSUNNY   82  68  61 SW14      29.74F HX  85
AUDUBON *      CLOUDY    79  73  83 S10       29.74F HX  82
CLARINDA *     SUNNY     82  72  69 W10       29.79S HX  87
COUNCIL BLFS * MOSUNNY   81  70  69 W13G20    29.75S HX  84
CRESTON *      CLOUDY    81  72  74 S17       29.78F HX  84
HARLAN  *      SUNNY     81  68  65 SW14      29.77S HX  83
LAMONI         PTSUNNY   82  71  69 S13       29.78F HX  86
RED OAK *      MOSUNNY   82  68  61 SW13      29.76S HX  85
SHENANDOAH *   SUNNY     82  68  61 W8G14     29.77S HX  85
$$

IAZ047>049-059>061-072>074-084-162100-
   CENTRAL IOWA

CITY           SKY/WX    TMP DP  RH WIND       PRES   REMARKS
AMES           CLOUDY    80  74  81 S15       29.75F HX  85
ANKENY *       CLOUDY    81  72  74 S13G18    29.75F HX  84
BOONE *        CLOUDY    79  72  78 S13G20    29.75F HX  82
CHARITON *     CLOUDY    79  72  78 S16       29.78F HX  82
DES MOINES     CLOUDY    83  70  64 S16G24    29.75F HX  87
GRINNELL*      CLOUDY    79  72  79 SE12      29.80S HX  82
KNOXVILLE *    CLOUDY    81  70  69 S13G21    29.77S HX  84
MARSHALLTOWN   CLOUDY    77  74  90 E9        29.78F
NEWTON *       PTSUNNY   79  72  78 S14G21    29.79R HX  82
PELLA *        PTSUNNY   81  70  69 SE9       29.80R HX  85
PERRY *        CLOUDY    81  74  79 SE12      29.74F HX  85
$$

IAZ004>006-015-016-023>025-035-036-162100-
   NORTH CENTRAL IOWA

CITY           SKY/WX    TMP DP  RH WIND       PRES   REMARKS
ALGONA *       CLOUDY    75  75 100 SE12G17   29.74F
CLARION *      CLOUDY    79  75  89 SE15      29.75F HX  82
ESTHERVILLE    RAIN      73  73 100 SE13      29.73F FOG
FORT DODGE *   CLOUDY    75  70  83 S8        29.75F
MASON CITY     CLOUDY    79  72  79 SE14      29.79F HX  82
FOREST CITY *  LGT RAIN  77  72  83 SE9       29.77F
WEBSTER CITY * PTSUNNY   79  72  78 SE15      29.73F HX  82
IOWA FALLS *   CLOUDY    78  74  87 SE12      29.78F HX  80
$$

IAZ007>011-017>019-026>030-037>042-050>054-066-162100-
   NORTHEAST IOWA

CITY           SKY/WX    TMP DP  RH WIND       PRES   REMARKS
CEDAR RAPIDS   CLOUDY    79  72  79 SE20G25   29.77F HX  82
CHARLES CITY * PTSUNNY   79  73  83 SE13      29.79F HX  82
CLINTON *      LGT RAIN  77  75  93 SE9       29.86F
DECORAH *      CLOUDY    81  72  74 SE9G18    29.83F HX  84
DUBUQUE        CLOUDY    75  72  90 S14       29.87F
MONTICELLO *   CLOUDY    77  73  88 E13       29.82F
OELWEIN *      CLOUDY    79  73  83 SE15      29.81F HX  82
WATERLOO       LGT RAIN  78  71  79 SE9       29.76F HX  80
$$

IAZ064-065-067-068-078-162100-
   EAST CENTRAL IOWA

CITY           SKY/WX    TMP DP  RH WIND       PRES   REMARKS
DAVENPORT      CLOUDY    82  73  74 S12G18    29.86F HX  87
IOWA CITY      MOSUNNY   82  74  76 SE16G28   29.78F HX  88
MT. PLEASANT * MOSUNNY   80  72  76 SE17      29.78F HX  83
MUSCATINE *    CLOUDY    82  72  69 S14G20    29.81F HX  87
QUAD CITIES    PTSUNNY   82  72  71 S10       29.83F HX  87
$$

IAZ062-063-075>077-085>089-095>099-162100-
   SOUTHEAST IOWA

CITY           SKY/WX    TMP DP  RH WIND       PRES   REMARKS
BURLINGTON     PTSUNNY   83  74  74 S16       29.82F HX  89
FAIRFIELD *    CLOUDY    81  72  74 SE13G25   29.77F HX  84
FORT MADISON * PTSUNNY   81  73  78 SE13      29.81F HX  85
KEOKUK *       MOSUNNY   82  73  74 SE14      29.79F HX  88
OSKALOOSA *    CLOUDY    81  73  76 S14       29.79F HX  85
CENTERVILLE *    N/A     81  72  74 S15       29.83R HX  84
OTTUMWA        CLOUDY    83  71  67 SE15G24   29.77S HX  87
WASHINGTON *   CLOUDY    81  73  78 SE14      29.78F HX  85
$$

ABBREVIATIONS USED IN REMARKS
   TC - TEMPERATURES IN CELSIUS
  WCI - WIND CHILL INDEX
   HX - HEAT INDEX
  VSB - VISIBILITY
$$





USA.gov is the U.S. government's official web portal to all federal, state and local government web resources and services.